カタログに戻る

CZ-6A DEB

運用中SSO
NORAD 54881·DEBRIS·🇨🇳 China

打ち上げ Nov 11, 2022 から Taiyuan Satellite Launch Center

Loading…

次のパス (今後24時間)

TLE

最新Source: Space-Track

元期: Sep 14, 2026, 20:18 UTC

1 54881U 22151PS  26257.84641725  .00006482  00000-0  10295-2 0  9995
2 54881  98.4005 291.7353 0086875 328.8044  30.8021 14.69951461202023

AllMySatでCZ-6A DEBをリアルタイム追跡

Download on the App Store